sat.trackr.live / text

‹ back to catalog

STARLINK-5709

NORAD 55621 · 2023-020BE

PAYLOAD ACTIVE UNKNOWN

§ Identity

Operator
Country
US
Launch date
2023-02-12
Launch site
AFETR
Launch vehicle
Mass (kg)
RCS (m²)

Purposes: comms

External: N2YO · Heavens-Above · Gunter

§ Orbital elements

Epoch: 2026-09-20T16:22:34.761792Z

Period
94.27 min
Inclination
43.0025°
Eccentricity
0.0001339
Mean motion
15.27577601 rev/d
Perigee alt
482.1 km
Apogee alt
484.0 km
Semi-major
6,861.2 km
B*
1.3568e-5
RAAN
332.7844°
Arg perigee
267.6645°
Mean anomaly
92.4053°
Rev number
19,886

§ Raw data

STARLINK-57091 55621U 23020BE  26263.68234678  .00000111  00000+0  13568-4 0  99982 55621  43.0025 332.7844 0001339 267.6645  92.4053 15.27577601198864

JSON: /api/v1/satellites/55621 · /tle

For live sub-satellite position, see the globe view (requires WebGL).

§ Visibility from observer

Set your observer location to see the next 7 days of passes ≥ 10°. The values pass through the URL so the page stays shareable.

No JS? Fill the form by hand. The geolocation button needs JavaScript.